Location: Siris
(39.7142°N, 8.7744°E)
Time: 17:23:34
(UTC+00:00)

Daily predictions for brighter satellites

Satellite Brightness Start Highest point End
(mag) Time Altitude Azimuth Time Altitude Azimuth Time Altitude Azimuth
BREEZE-M DEB (TANK) 2.5 18:54:00 10° SW 18:56:41 89° SE 19:03:54 10° ENE
Cosmos 1271 Rocket 4.0 18:58:33 10° NNE 19:01:53 25° ENE 19:05:12 10° SE
Cosmos 1633 2.8 18:59:20 10° SSW 19:02:56 75° W 19:06:33 10° N
ATLAS 3B R/B 3.1 18:56:11 10° NW 19:03:21 73° WSW 19:10:45 10° SSE
COSMOS 2455 4.2 19:02:15 10° SE 19:06:03 18° ESE 19:09:52 10° ENE
Okean-O 4.1 19:04:57 10° SSW 19:09:05 38° W 19:13:14 10° NNW
ERS-2 3.3 19:06:33 10° NE 19:09:28 22° E 19:12:21 10° SSE
Cosmos 332 Rocket 3.8 19:07:04 10° NNW 19:11:58 73° ENE 19:16:52 10° SSE
Meteor 2-3 Rocket 3.9 19:06:46 10° SSE 19:12:14 52° E 19:17:48 10° NNE
GEOS 3 Rocket 3.6 19:07:52 10° NE 19:13:02 67° ESE 19:18:05 10° SSW
NOSS 2-1 (C) 2.8 19:11:30 10° SSW 19:14:56 64° ESE 19:18:10 10° NE
Ariane Rocket 3.5 19:11:48 10° SE 19:16:34 43° ENE 19:21:20 10° N
Cosmos 2098 Rocket 3.1 19:14:21 10° SSW 19:17:41 67° W 19:21:50 10° N
SAR-Lupe-1 4.0 19:14:31 10° NNE 19:18:04 65° ESE 19:21:37 10° S
Cosmos 2360 Rocket 3.4 19:13:45 10° N 19:18:26 26° NE 19:22:50 11° ESE
Helios 1A Rocket 2.9 19:15:14 10° SSE 19:19:17 79° ENE 19:23:23 10° N
Cosmos 1606 3.7 19:16:00 10° NNW 19:19:41 49° W 19:23:23 10° S
SAR-Lupe-4 3.6 19:16:47 10° NNE 19:20:20 60° ESE 19:23:52 10° S
NOSS 2-1 (D) 2.7 19:19:17 10° SSW 19:22:43 83° ESE 19:25:59 10° NE
Meteor 2-19 Rocket 4.4 19:17:38 10° S 19:23:39 71° E 19:29:40 10° NNE
Cosmos 304 Rocket 3.8 19:20:59 10° NNW 19:25:49 88° WSW 19:30:34 10° SSE
Cosmos 2151 3.0 19:21:44 10° S 19:25:59 88° W 19:30:17 10° N
Cosmos 2084 4.3 19:24:46 10° SW 19:28:42 51° NW 19:32:45 10° NNE
Resurs 01 Rocket 2.4 19:27:41 13° SE 19:31:13 36° ENE 19:35:19 10° N
Gbstr 26 Del rocket 2.8 19:32:37 10° WNW 19:36:19 68° SW 19:39:12 17° SE
Cosmos 1980 Rocket 4.2 19:35:21 10° NW 19:39:53 25° WSW 19:44:24 10° SSW
Landsat 7 4.3 19:38:02 15° SE 19:41:37 44° ENE 19:46:08 10° N
Cosmos 1862 4.5 19:40:34 19° ESE 19:42:07 24° E 19:45:20 10° NE
Cosmos 1812 4.1 19:39:36 10° NNE 19:42:43 23° ENE 19:44:03 19° ESE
Cosmos 1933 3.3 19:39:01 10° N 19:43:04 89° E 19:47:04 10° S
Cosmos 1782 3.0 19:41:05 10° N 19:45:00 51° E 19:47:38 19° SSE
MOS 1 4.3 19:39:35 10° SSE 19:45:15 90° NE 19:50:55 10° NNW
Cosmos 1833 4.4 19:39:50 10° S 19:45:24 53° ESE 19:51:00 10° NNE
SL-27 R/B 2.5 19:42:59 10° S 19:46:30 59° ESE 19:50:03 10° NNE
BREEZE-M DEB (TANK) 2.7 19:50:29 10° NW 19:53:32 71° NE 19:58:28 19° ESE
Cosmos 2333 Rocket 3.6 19:49:01 10° N 19:53:36 25° NE 19:56:33 17° E
IRS-1A Rocket 4.3 19:48:55 10° S 19:54:24 78° WSW 19:59:56 10° NNW
ARIANE 5 R/B 4.3 19:54:19 16° E 19:55:41 19° ENE 19:58:44 10° NNE
Cosmos 2322 Rocket 2.1 19:50:16 10° NNW 19:55:55 86° ENE 20:00:04 19° SSE
OBJECT-B 3.5 19:55:53 10° SW 19:58:10 18° W 20:00:29 10° NW
BREEZE-M R/B 3.2 19:52:37 10° SW 19:59:24 45° SE 20:02:45 10° ENE
Resurs 1-3 4.4 20:00:50 10° S 20:05:05 50° W 20:09:22 10° NNW
BREEZE-M DEB (TANK) 3.9 20:02:27 10° NW 20:06:05 84° NE 20:12:58 21° ESE
Cosmos 2219 Rocket 3.5 20:03:10 10° N 20:07:48 26° NE 20:10:11 19° E
Centaur D AC-29 4.4 20:00:51 10° W 20:09:22 14° WSW 20:13:39 10° SSW
Atlas Centaur 2 4.0 20:10:13 10° SW 20:10:47 10° SSW 20:11:19 10° SSW
USA 276 4.5 20:09:10 10° W 20:10:59 14° SW 20:11:58 13° SSW
Cosmos 2056 Rocket 3.5 20:07:26 10° NNW 20:12:46 75° ENE 20:15:29 29° SSE
ATLAS 5 CENTAUR R/B 3.8 20:09:07 10° N 20:13:43 25° NE 20:17:08 16° E
Meteor 2-14 Rocket 4.4 20:09:11 13° S 20:14:39 68° E 20:20:44 10° NNE
Spot 2 Rocket 4.1 20:14:03 29° ESE 20:15:57 40° ENE 20:20:42 10° N
SPOT 1/Viking Rocket 3.6 20:14:27 28° SSE 20:17:08 66° ENE 20:22:19 10° N
USA 245 3.8 20:16:53 37° ESE 20:18:05 48° ENE 20:21:39 10° N
Cosmos 1408 Rocket 3.6 20:17:00 35° SSE 20:18:31 54° E 20:22:44 10° NNE
Cosmos 1655 Rocket 4.3 20:19:07 28° SE 20:22:09 47° E 20:28:13 10° NNE
Cosmos 1743 Rocket 4.3 20:25:39 33° E 20:25:40 33° E 20:29:39 10° NNE
IGS 5A 4.2 20:23:14 21° SSW 20:25:46 50° W 20:29:49 10° NNW
CZ-2C R/B 3.5 20:23:40 10° NNE 20:28:09 81° ESE 20:30:27 28° S
SL-16 R/B 3.4 20:24:07 10° NW 20:29:17 37° WSW 20:33:34 14° SSW
CARTOSAT-1 3.8 20:29:08 44° ESE 20:29:56 51° ENE 20:34:08 10° N
GP-B 3.3 20:26:46 10° N 20:31:12 71° W 20:33:39 26° SSW
Lacrosse 5 2.2 20:33:37 42° ESE 20:33:37 42° ESE 20:38:06 10° NE
Cosmos 1151 Rocket 3.6 20:29:33 10° NNW 20:33:50 54° W 20:36:06 26° SSW
Cosmos 1371 Rocket 4.4 20:29:42 10° NNW 20:35:00 61° WSW 20:37:42 28° S
NOSS 3-1 (C) 4.2 20:28:48 10° NNW 20:36:29 71° NE 20:40:55 32° SE
MetOp-B 4.3 20:36:35 29° S 20:39:22 70° WSW 20:44:45 10° NNW
Cosmos 2333 4.2 20:34:34 10° NNW 20:40:09 66° ENE 20:41:51 44° SE
Meteor 1-10 Rocket 4.1 20:39:26 10° N 20:45:01 78° E 20:46:47 45° SSE
COSMOS 2487 2.8 20:45:40 57° NNE 20:45:40 57° NNE 20:48:27 10° NNE
Cosmos 468 4.5 20:47:12 52° SE 20:47:56 57° ESE 20:53:03 10° NNE
Cosmos 1515 Rocket 3.4 20:46:47 10° N 20:51:12 88° W 20:51:45 68° S
COSMOS 2455 3.1 20:45:21 10° SW 20:51:19 69° WNW 20:57:21 10° NNE
COSMOS 2428 3.1 20:47:14 10° NNW 20:52:43 47° ENE 20:53:52 41° E
USA 229 DEB 4.2 20:47:18 10° NNW 20:54:34 58° NE 20:57:36 37° ESE
USA 229 4.2 20:47:24 10° NNW 20:54:40 57° NE 20:57:42 37° ESE
Terra 2.3 20:54:30 44° E 20:54:42 44° ENE 20:59:13 10° N
Cosmos 292 Rocket 4.0 20:54:21 10° NNW 20:59:04 63° WSW 20:59:58 51° SSW
Cosmos 1048 Rocket 3.8 20:59:49 60° S 21:00:43 79° ESE 21:05:51 10° NNE
Cosmos 2360 Rocket 2.9 20:57:16 10° NW 21:02:37 45° WSW 21:04:37 32° SSW
Cosmos 972 Rocket 3.9 21:01:58 45° SSW 21:03:37 86° WNW 21:08:36 10° NNE
Resurs 01 Rocket 3.9 21:05:14 13° SW 21:07:48 19° W 21:11:02 10° NW
Cosmos 489 Rocket 4.4 21:06:25 48° S 21:08:13 73° ESE 21:14:33 10° NNE
Cosmos 2266 Rocket 4.0 21:09:42 39° SSW 21:12:09 80° W 21:18:28 10° N
NOSS 3-1 (A) 4.1 21:07:35 10° NNW 21:15:19 76° NE 21:18:16 46° SE
ERS-1 Rocket 3.0 21:20:14 67° SW 21:20:38 71° WSW 21:25:40 10° NNW
Cosmos 2228 Rocket 3.4 21:23:09 10° N 21:26:53 63° N 21:26:53 63° N
Cosmos 2297 Rocket 3.2 21:31:26 33° ENE 21:31:26 33° ENE 21:34:58 10° NE
Cosmos 1805 Rocket 4.0 21:31:35 58° NNW 21:31:35 58° NNW 21:35:13 10° N
SPOT 5 3.3 21:31:58 49° W 21:31:58 49° W 21:36:00 10° NNW
ARIANE 5 R/B 3.6 21:31:52 40° W 21:31:52 40° W 21:36:01 10° NNW
Cosmos 2285 Rocket 3.8 21:25:56 10° NNW 21:32:15 84° WSW 21:33:03 70° S
Cosmos 972 4.5 21:32:40 85° NE 21:32:40 85° NE 21:37:39 10° NNE
BREEZE-M DEB (TANK) 3.9 21:31:20 10° NW 21:34:37 29° NNW 21:34:37 29° NNW
Cosmos 2315 Rocket 3.9 21:30:23 10° N 21:36:46 85° W 21:37:37 69° S
NOSS 0 Rocket 4.0 21:31:18 10° NNW 21:37:28 62° ENE 21:37:53 61° E
Cosmos 2333 Rocket 2.7 21:32:41 10° NW 21:38:07 49° WSW 21:38:33 47° WSW
Meteor 1-20 Rocket 4.1 21:40:22 87° WSW 21:40:26 87° W 21:46:12 10° N
Cosmos 2237 Rocket 2.9 21:35:12 10° N 21:40:34 41° ENE 21:40:34 41° ENE
Cosmos 2322 4.2 21:35:36 10° NW 21:41:05 49° WSW 21:41:29 48° WSW
Cosmos 2227 Rocket 3.5 21:44:50 29° ENE 21:44:50 29° ENE 21:47:54 10° NE
Cosmos 1452 Rocket 4.1 21:39:28 10° NNW 21:44:29 48° WSW 21:44:29 48° WSW
Cosmos 2219 Rocket 2.8 21:46:38 10° NW 21:51:54 45° WSW 21:51:54 45° WSW
Sich 1 4.2 21:53:27 42° NNW 21:53:27 42° NNW 21:56:33 10° N
ATLAS 5 CENTAUR R/B 2.5 21:52:56 10° NW 21:58:38 69° WSW 21:58:38 69° WSW
Cosmos 1331 Rocket 4.4 21:55:16 10° NNW 21:59:36 61° NW 21:59:36 61° NW
Cosmos 1110 Rocket 4.4 21:56:38 10° NNW 22:01:08 59° WNW 22:01:08 59° WNW
SL-16 R/B 3.6 22:08:10 10° N 22:12:56 27° NE 22:12:56 27° NE
Lacrosse 5 3.3 22:12:21 13° W 22:16:21 35° NW 22:21:00 10° NNE
Terra 4.0 22:33:24 18° W 22:33:24 18° W 22:35:54 10° NW
COSMOS 2428 4.4 22:32:13 10° NW 22:35:52 23° W 22:35:52 23° W
Timation 2 Rocket 4.3 22:39:27 57° NNE 22:39:27 57° NNE 22:44:16 10° NNE
CZ-4C R/B 4.0 22:31:39 10° NNW 22:38:22 38° NE 22:41:10 30° E
CZ-3B R/B 3.9 22:36:17 10° NW 22:39:48 29° NW 22:39:48 29° NW
Meteor 2-4 Rocket 4.2 22:35:59 10° N 22:40:46 60° NNW 22:40:46 60° NNW
Cosmos 2219 3.9 22:48:17 51° NW 22:48:17 51° NW 22:53:20 10° NNE
USA 267 3.3 22:42:29 10° NE 22:48:10 69° NE 22:48:10 69° NE
Cosmos 909 Rocket 4.5 23:02:47 60° WNW 23:03:16 61° NW 23:10:49 10° NNE
Cosmos 2297 Rocket 3.7 23:13:12 27° WNW 23:13:49 28° WNW 23:18:38 10° N
USA 234 4.2 23:18:04 28° E 23:20:54 43° NNE 23:26:59 10° NW
Cosmos 2237 Rocket 4.0 23:19:41 10° NW 23:22:23 22° WNW 23:22:23 22° WNW
Cosmos 1709 Rocket 4.4 23:26:19 60° NW 23:26:19 60° NW 23:31:47 10° N
Cosmos 2227 Rocket 3.7 23:26:37 29° WNW 23:26:47 29° WNW 23:31:40 10° N
Cosmos 2263 Rocket 3.4 23:33:29 37° NE 23:33:29 37° NE 23:37:00 10° NNE
Cosmos 2344 3.9 23:34:40 50° E 23:34:40 50° E 23:40:52 10° NE
